contact:dominique.lefevre@mio.osupytheas.fr, maurice.libes@osupytheas.fr, didier.mallarino@osupytheas.fr
Project:EMSO http://www.emso-fr.org/EMSO-France
Depth: 2436.0 m
Title:EMSO Ligure Ouest : Data MII capteur AQUADOPP
Date,Latitude,Longitude,X_East,Y_North,Z_Up,Amplitude_X,Amplitude_Y,Amplitude_Z,Batterie,SoundSpeed,Heading,Pitch,Roll,Pressure,TIS,Speed,Direction
, degrees North, degrees East, m.s-1, m.s-1,m.s-1, 1, 1, 1, Volt, m.s-1, degree, degree, degree, dbar, degree_C, m.s-1, degree
2020-01-01T00:04:02,42.805,6.029,-0.03,0.004,0.002,107.0,108.0,104.0,13.4,1505.3,326.8,-0.7,1.8,2470.341,13.31,0.03,277.6
2020-01-01T00:07:02,42.805,6.029,-0.016,0.012,-0.013,107.0,108.0,102.0,13.3,1505.3,323.8,-0.7,1.8,2470.356,13.31,0.02,306.9
2020-01-01T00:10:03,42.805,6.029,-0.032,0.007,0.002,106.0,109.0,104.0,13.4,1505.3,324.8,-0.7,1.8,2470.348,13.32,0.032,282.3
2020-01-01T00:13:03,42.805,6.029,-0.024,-0.008,-0.022,105.0,109.0,104.0,13.3,1505.3,326.9,-0.8,1.8,2470.358,13.32,0.025,251.6
2020-01-01T00:16:03,42.805,6.029,-0.004,0.002,0.0,106.0,109.0,103.0,13.3,1505.3,325.9,-0.7,1.9,2470.295,13.32,0.004,296.6
2020-01-01T00:19:03,42.805,6.029,-0.047,0.001,-0.02,106.0,108.0,103.0,13.4,1505.3,328.1,-0.7,1.8,2470.329,13.32,0.047,271.2
2020-01-01T00:22:02,42.805,6.029,-0.032,-0.015,-0.015,107.0,109.0,104.0,13.4,1505.3,328.6,-0.7,1.9,2470.305,13.32,0.035,244.9
2020-01-01T00:25:02,42.805,6.029,-0.031,0.002,-0.013,107.0,108.0,104.0,13.4,1505.3,327.8,-0.7,1.8,2470.354,13.32,0.031,273.7
2020-01-01T00:28:03,42.805,6.029,-0.011,0.012,0.007,106.0,109.0,104.0,13.4,1505.3,327.5,-0.7,1.8,2470.3,13.32,0.016,317.5
2020-01-01T00:31:03,42.805,6.029,-0.02,-0.008,0.001,107.0,110.0,105.0,13.3,1505.3,324.4,-0.7,1.8,2470.299,13.32,0.021,248.2
2020-01-01T00:34:02,42.805,6.029,-0.036,0.001,-0.004,108.0,109.0,103.0,13.4,1505.3,327.7,-0.7,1.9,2470.295,13.33,0.036,271.6
2020-01-01T00:37:02,42.805,6.029,-0.031,0.007,-0.03,107.0,109.0,103.0,13.4,1505.3,325.4,-0.7,1.8,2470.301,13.32,0.031,282.7
2020-01-01T00:40:03,42.805,6.029,-0.035,-0.008,-0.02,108.0,110.0,103.0,13.4,1505.3,324.5,-0.7,1.8,2470.302,13.32,0.035,257.1
2020-01-01T00:43:03,42.805,6.029,-0.035,-0.002,-0.041,109.0,108.0,104.0,13.4,1505.3,327.0,-0.7,1.9,2470.27,13.33,0.035,266.7
2020-01-01T00:46:02,42.805,6.029,-0.039,0.0,-0.013,107.0,108.0,105.0,13.4,1505.3,325.2,-0.7,1.8,2470.234,13.33,0.039,270.0
2020-01-01T00:49:03,42.805,6.029,-0.048,-0.001,-0.046,107.0,109.0,104.0,13.3,1505.3,324.9,-0.7,1.8,2470.296,13.32,0.048,268.8
2020-01-01T00:52:02,42.805,6.029,-0.034,0.0,-0.039,109.0,109.0,104.0,13.4,1505.3,325.3,-0.7,1.8,2470.266,13.32,0.034,270.0
2020-01-01T00:55:03,42.805,6.029,-0.059,0.012,-0.036,107.0,109.0,104.0,13.3,1505.3,328.7,-0.7,1.9,2470.332,13.32,0.06,281.5
2020-01-01T00:58:03,42.805,6.029,-0.023,0.015,-0.02,107.0,108.0,103.0,13.4,1505.3,325.4,-0.7,1.8,2470.288,13.32,0.027,303.1
2020-01-01T01:04:02,42.805,6.029,-0.04,-0.007,-0.029,109.0,109.0,105.0,13.3,1505.2,326.4,-0.8,1.8,2470.342,13.3,0.04,260.1
2020-01-01T01:07:03,42.805,6.029,-0.034,-0.025,-0.028,108.0,109.0,104.0,13.3,1505.3,327.1,-0.7,1.8,2470.339,13.31,0.042,233.7
2020-01-01T01:10:03,42.805,6.029,-0.046,-0.001,-0.059,107.0,109.0,103.0,13.4,1505.3,325.0,-0.7,1.9,2470.303,13.32,0.046,268.8
2020-01-01T01:13:03,42.805,6.029,-0.017,-0.002,-0.037,108.0,108.0,104.0,13.3,1505.3,325.9,-0.7,1.8,2470.31,13.32,0.017,263.3
2020-01-01T01:16:03,42.805,6.029,-0.037,0.007,-0.05,107.0,110.0,105.0,13.4,1505.3,326.7,-0.7,1.8,2470.304,13.32,0.037,280.7
2020-01-01T01:19:03,42.805,6.029,-0.019,0.005,-0.024,107.0,109.0,105.0,13.3,1505.3,326.5,-0.7,1.9,2470.322,13.32,0.019,284.7
2020-01-01T01:22:02,42.805,6.029,-0.025,0.013,-0.027,108.0,109.0,103.0,13.3,1505.3,325.0,-0.7,1.9,2470.299,13.32,0.028,297.5
2020-01-01T01:25:03,42.805,6.029,-0.058,-0.009,-0.054,108.0,109.0,104.0,13.4,1505.3,327.7,-0.8,1.8,2470.266,13.32,0.058,261.2
2020-01-01T01:28:03,42.805,6.029,-0.045,-0.005,-0.027,106.0,109.0,103.0,13.4,1505.3,325.1,-0.7,1.8,2470.306,13.33,0.045,263.7
2020-01-01T01:31:03,42.805,6.029,-0.051,0.003,-0.027,107.0,108.0,104.0,13.4,1505.3,325.4,-0.7,1.8,2470.285,13.33,0.051,273.4
2020-01-01T01:34:02,42.805,6.029,-0.044,0.012,-0.038,107.0,109.0,103.0,13.4,1505.3,327.1,-0.7,1.9,2470.317,13.33,0.045,285.3
2020-01-01T01:37:02,42.805,6.029,-0.031,0.006,-0.008,107.0,109.0,104.0,13.4,1505.3,324.5,-0.7,1.8,2470.31,13.33,0.031,281.0
2020-01-01T01:40:03,42.805,6.029,-0.021,-0.003,-0.017,108.0,108.0,104.0,13.3,1505.3,325.0,-0.7,1.8,2470.251,13.32,0.021,261.9
2020-01-01T01:43:03,42.805,6.029,-0.022,-0.005,-0.047,108.0,108.0,103.0,13.4,1505.3,327.8,-0.7,1.8,2470.254,13.33,0.022,257.2
2020-01-01T01:46:02,42.805,6.029,-0.031,0.0,-0.031,108.0,107.0,103.0,13.4,1505.3,327.2,-0.7,1.8,2470.278,13.33,0.03,270.0
2020-01-01T01:49:03,42.805,6.029,-0.035,0.006,-0.039,107.0,108.0,103.0,13.4,1505.3,325.5,-0.7,1.9,2470.298,13.32,0.035,279.7
2020-01-01T01:52:02,42.805,6.029,-0.064,0.009,-0.052,106.0,107.0,103.0,13.3,1505.3,324.2,-0.7,1.8,2470.288,13.33,0.064,278.0
2020-01-01T01:55:03,42.805,6.029,-0.03,0.008,-0.001,106.0,108.0,104.0,13.3,1505.3,324.6,-0.7,1.8,2470.29,13.32,0.031,284.9
2020-01-01T01:58:03,42.805,6.029,-0.037,0.015,-0.024,107.0,108.0,103.0,13.4,1505.3,327.7,-0.7,1.8,2470.23,13.32,0.039,292.1
2020-01-01T02:04:02,42.805,6.029,-0.019,0.014,-0.017,105.0,108.0,103.0,13.4,1505.3,324.2,-0.8,1.8,2470.301,13.31,0.023,306.4
2020-01-01T02:07:02,42.805,6.029,-0.047,0.02,-0.029,108.0,108.0,103.0,13.4,1505.3,328.9,-0.7,1.8,2470.294,13.31,0.051,293.0
2020-01-01T02:10:03,42.805,6.029,-0.049,-0.018,-0.047,107.0,108.0,102.0,13.4,1505.3,323.4,-0.7,1.8,2470.279,13.32,0.052,249.8
2020-01-01T02:13:02,42.805,6.029,-0.024,0.007,-0.015,106.0,108.0,103.0,13.3,1505.3,324.8,-0.7,1.8,2470.227,13.32,0.025,286.3
2020-01-01T02:16:03,42.805,6.029,-0.033,-0.006,-0.041,109.0,108.0,103.0,13.4,1505.3,326.1,-0.7,1.8,2470.261,13.32,0.033,259.7
2020-01-01T02:19:03,42.805,6.029,-0.034,0.018,0.002,106.0,105.0,102.0,13.3,1505.3,326.3,-0.7,1.8,2470.286,13.32,0.038,297.9
2020-01-01T02:22:02,42.805,6.029,-0.022,0.0,-0.045,106.0,106.0,103.0,13.4,1505.3,325.0,-0.7,1.8,2470.265,13.32,0.022,270.0
2020-01-01T02:25:03,42.805,6.029,-0.057,0.019,-0.013,107.0,109.0,104.0,13.4,1505.3,326.6,-0.7,1.8,2470.248,13.32,0.06,288.4
2020-01-01T02:28:03,42.805,6.029,-0.042,0.006,-0.01,107.0,106.0,102.0,13.4,1505.3,326.6,-0.7,1.8,2470.278,13.32,0.042,278.1
2020-01-01T02:31:03,42.805,6.029,-0.05,0.013,-0.054,107.0,108.0,104.0,13.4,1505.3,326.4,-0.7,1.8,2470.25,13.33,0.051,284.6
2020-01-01T02:34:03,42.805,6.029,-0.031,0.013,-0.001,106.0,109.0,102.0,13.4,1505.3,323.6,-0.7,1.8,2470.29,13.33,0.033,292.7
2020-01-01T02:37:02,42.805,6.029,-0.05,0.007,-0.036,105.0,109.0,103.0,13.4,1505.3,326.4,-0.7,1.8,2470.268,13.33,0.05,278.0
2020-01-01T02:40:03,42.805,6.029,-0.034,0.004,-0.04,105.0,109.0,104.0,13.3,1505.3,324.2,-0.7,1.8,2470.231,13.33,0.034,276.7
2020-01-01T02:43:03,42.805,6.029,-0.047,-0.009,-0.027,106.0,109.0,102.0,13.3,1505.3,324.6,-0.7,1.9,2470.221,13.33,0.047,259.2
2020-01-01T02:46:03,42.805,6.029,-0.039,0.0,-0.016,106.0,108.0,103.0,13.4,1505.3,328.6,-0.7,1.8,2470.264,13.33,0.039,270.0
2020-01-01T02:49:03,42.805,6.029,-0.045,0.007,-0.058,107.0,107.0,103.0,13.4,1505.3,325.7,-0.7,1.8,2470.237,13.32,0.045,278.8
2020-01-01T02:52:02,42.805,6.029,-0.048,0.017,-0.033,106.0,107.0,103.0,13.4,1505.3,327.8,-0.7,1.8,2470.278,13.32,0.05,289.5
2020-01-01T02:55:03,42.805,6.029,-0.033,-0.011,-0.051,106.0,108.0,103.0,13.4,1505.3,326.1,-0.7,1.8,2470.252,13.32,0.034,251.6
2020-01-01T02:58:03,42.805,6.029,-0.037,0.015,-0.027,106.0,107.0,102.0,13.4,1505.3,325.4,-0.7,1.9,2470.263,13.32,0.039,292.1
2020-01-01T03:04:02,42.805,6.029,-0.035,-0.005,-0.027,106.0,106.0,103.0,13.4,1505.3,325.3,-0.7,1.8,2470.257,13.31,0.035,261.9
2020-01-01T03:07:02,42.805,6.029,-0.027,0.01,-0.029,106.0,108.0,101.0,13.4,1505.3,326.5,-0.7,1.8,2470.28,13.31,0.028,290.3
2020-01-01T03:10:03,42.805,6.029,-0.031,0.006,-0.034,106.0,107.0,101.0,13.4,1505.3,324.0,-0.7,1.8,2470.266,13.32,0.031,281.0
2020-01-01T03:13:03,42.805,6.029,-0.043,0.016,-0.025,104.0,108.0,102.0,13.3,1505.3,327.2,-0.7,1.8,2470.238,13.32,0.045,290.4
2020-01-01T03:16:03,42.805,6.029,-0.08,0.003,-0.073,104.0,109.0,103.0,13.3,1505.3,324.9,-0.7,1.8,2470.245,13.32,0.08,272.1
2020-01-01T03:19:03,42.805,6.029,-0.037,0.004,-0.036,105.0,108.0,103.0,13.4,1505.3,326.0,-0.7,1.8,2470.258,13.32,0.037,276.2
2020-01-01T03:22:02,42.805,6.029,-0.049,0.004,-0.022,105.0,107.0,103.0,13.4,1505.3,325.3,-0.7,1.9,2470.212,13.32,0.049,274.7
2020-01-01T03:25:03,42.805,6.029,-0.038,0.022,-0.023,106.0,109.0,102.0,13.4,1505.3,327.8,-0.7,1.8,2470.261,13.33,0.043,300.1
2020-01-01T03:28:02,42.805,6.029,-0.037,0.007,-0.028,105.0,109.0,102.0,13.4,1505.3,323.3,-0.7,1.8,2470.262,13.33,0.037,280.7
2020-01-01T03:31:03,42.805,6.029,-0.035,0.012,-0.014,105.0,108.0,101.0,13.4,1505.3,327.2,-0.7,1.8,2470.236,13.33,0.037,288.9
2020-01-01T03:34:03,42.805,6.029,-0.02,0.023,-0.04,106.0,107.0,102.0,13.4,1505.3,326.3,-0.7,1.8,2470.26,13.33,0.03,319.0
2020-01-01T03:37:02,42.805,6.029,-0.022,-0.001,-0.024,107.0,107.0,102.0,13.3,1505.3,325.4,-0.7,1.8,2470.225,13.33,0.022,267.4
2020-01-01T03:40:03,42.805,6.029,-0.042,0.016,-0.012,106.0,108.0,103.0,13.4,1505.3,325.3,-0.7,1.9,2470.253,13.33,0.044,290.9
2020-01-01T03:43:03,42.805,6.029,-0.028,0.016,-0.021,106.0,107.0,103.0,13.4,1505.3,326.1,-0.7,1.9,2470.239,13.33,0.032,299.7
2020-01-01T03:46:03,42.805,6.029,-0.037,-0.012,-0.057,107.0,107.0,102.0,13.4,1505.3,324.0,-0.7,1.9,2470.256,13.33,0.038,252.0
2020-01-01T03:49:03,42.805,6.029,-0.047,-0.003,-0.039,103.0,107.0,103.0,13.3,1505.3,326.2,-0.7,1.8,2470.244,13.33,0.047,266.4
2020-01-01T03:52:02,42.805,6.029,-0.039,0.02,-0.05,109.0,107.0,101.0,13.4,1505.3,326.9,-0.7,1.8,2470.235,13.33,0.043,297.1
2020-01-01T03:55:03,42.805,6.029,-0.028,-0.002,-0.017,104.0,107.0,102.0,13.4,1505.3,325.8,-0.7,1.9,2470.222,13.33,0.028,265.9
2020-01-01T03:58:02,42.805,6.029,-0.032,0.012,-0.047,106.0,108.0,102.0,13.4,1505.3,326.1,-0.7,1.8,2470.234,13.33,0.034,290.6
2020-01-01T04:04:02,42.805,6.029,-0.018,0.017,-0.037,106.0,108.0,102.0,13.3,1505.3,325.8,-0.7,1.9,2470.268,13.31,0.024,313.4
2020-01-01T04:07:02,42.805,6.029,-0.028,0.008,-0.041,106.0,110.0,102.0,13.3,1505.3,324.8,-0.7,1.8,2470.27,13.31,0.029,285.9
2020-01-01T04:10:03,42.805,6.029,-0.02,0.014,-0.039,106.0,109.0,102.0,13.4,1505.3,325.6,-0.7,1.9,2470.258,13.32,0.024,305.0
2020-01-01T04:13:03,42.805,6.029,-0.042,0.007,-0.018,106.0,108.0,102.0,13.4,1505.3,324.4,-0.8,1.8,2470.234,13.32,0.042,279.5
2020-01-01T04:16:02,42.805,6.029,-0.026,0.007,-0.043,105.0,106.0,103.0,13.4,1505.3,325.3,-0.7,1.8,2470.23,13.33,0.026,285.1
2020-01-01T04:19:03,42.805,6.029,-0.04,0.009,-0.059,104.0,108.0,102.0,13.3,1505.3,326.6,-0.7,1.8,2470.229,13.33,0.041,282.7
2020-01-01T04:22:02,42.805,6.029,-0.033,0.014,-0.037,105.0,108.0,102.0,13.4,1505.3,326.9,-0.7,1.8,2470.243,13.33,0.035,293.0
2020-01-01T04:25:03,42.805,6.029,-0.026,0.03,-0.017,107.0,109.0,102.0,13.4,1505.3,326.5,-0.7,1.9,2470.249,13.33,0.039,319.1
2020-01-01T04:28:03,42.805,6.029,-0.038,0.038,-0.016,106.0,109.0,102.0,13.3,1505.3,326.1,-0.7,1.8,2470.242,13.33,0.053,315.0
2020-01-01T04:31:03,42.805,6.029,-0.039,0.02,-0.044,105.0,109.0,102.0,13.4,1505.3,326.3,-0.7,1.8,2470.242,13.33,0.043,297.1
2020-01-01T04:34:02,42.805,6.029,-0.047,0.027,-0.015,106.0,107.0,102.0,13.4,1505.3,324.7,-0.7,1.9,2470.197,13.33,0.054,299.9
2020-01-01T04:37:02,42.805,6.029,-0.022,-0.004,-0.017,105.0,110.0,101.0,13.4,1505.3,323.1,-0.7,1.9,2470.283,13.33,0.022,259.7
2020-01-01T04:40:03,42.805,6.029,-0.025,0.023,-0.02,106.0,108.0,103.0,13.4,1505.3,325.8,-0.7,1.9,2470.262,13.33,0.033,312.6
2020-01-01T04:43:02,42.805,6.029,0.004,0.036,-0.026,105.0,110.0,102.0,13.4,1505.3,327.4,-0.7,1.8,2470.23,13.33,0.036,6.3
2020-01-01T04:46:02,42.805,6.029,-0.024,0.001,-0.023,106.0,107.0,103.0,13.4,1505.3,326.4,-0.7,1.8,2470.209,13.33,0.024,272.4
2020-01-01T04:49:03,42.805,6.029,-0.005,0.006,-0.012,106.0,107.0,101.0,13.3,1505.3,327.2,-0.7,1.8,2470.229,13.33,0.007,320.2
2020-01-01T04:52:02,42.805,6.029,-0.042,0.013,-0.058,105.0,108.0,102.0,13.3,1505.3,325.4,-0.7,1.8,2470.222,13.33,0.043,287.2
2020-01-01T04:55:03,42.805,6.029,-0.046,0.034,-0.039,106.0,108.0,102.0,13.4,1505.3,323.4,-0.7,1.8,2470.204,13.33,0.057,306.5
2020-01-01T04:58:03,42.805,6.029,-0.002,0.035,-0.008,105.0,109.0,102.0,13.4,1505.3,325.1,-0.7,1.8,2470.246,13.33,0.035,356.7
2020-01-01T05:04:02,42.805,6.029,-0.015,0.006,0.006,106.0,109.0,103.0,13.3,1505.3,326.0,-0.7,1.8,2470.278,13.31,0.016,291.8
2020-01-01T05:07:02,42.805,6.029,-0.04,0.012,-0.019,105.0,106.0,104.0,13.4,1505.3,326.9,-0.7,1.8,2470.272,13.31,0.041,286.7
2020-01-01T05:10:03,42.805,6.029,-0.03,0.015,-0.055,106.0,110.0,101.0,13.4,1505.3,328.3,-0.7,1.8,2470.293,13.32,0.033,296.6
2020-01-01T05:16:02,42.805,6.029,-0.03,0.03,-0.042,105.0,110.0,102.0,13.4,1505.2,325.5,-0.7,1.8,2470.26,13.3,0.042,315.0
2020-01-01T05:19:03,42.805,6.029,-0.043,0.004,-0.029,107.0,109.0,102.0,13.4,1505.3,325.7,-0.7,1.9,2470.309,13.31,0.043,275.3
2020-01-01T05:22:02,42.805,6.029,-0.036,0.013,-0.044,106.0,110.0,102.0,13.4,1505.3,324.4,-0.7,1.9,2470.262,13.32,0.038,289.9
2020-01-01T05:25:03,42.805,6.029,-0.005,0.013,-0.031,106.0,109.0,103.0,13.4,1505.3,325.3,-0.6,1.9,2470.284,13.32,0.013,339.0
2020-01-01T05:28:03,42.805,6.029,-0.03,-0.008,-0.019,107.0,109.0,102.0,13.3,1505.3,325.2,-0.7,1.8,2470.275,13.33,0.031,255.1
2020-01-01T05:31:03,42.805,6.029,-0.055,0.018,-0.017,105.0,109.0,102.0,13.4,1505.3,326.3,-0.7,1.8,2470.266,13.33,0.057,288.1
2020-01-01T05:34:03,42.805,6.029,-0.002,0.007,0.004,106.0,108.0,105.0,13.4,1505.3,326.5,-0.7,1.8,2470.246,13.33,0.007,344.1
2020-01-01T05:37:02,42.805,6.029,-0.036,0.035,-0.017,106.0,108.0,103.0,13.3,1505.3,326.6,-0.7,1.8,2470.239,13.33,0.05,314.2
2020-01-01T05:40:03,42.805,6.029,-0.03,0.007,-0.034,108.0,110.0,101.0,13.3,1505.3,325.5,-0.7,1.8,2470.262,13.33,0.03,283.1
2020-01-01T05:43:03,42.805,6.029,-0.039,0.014,-0.002,107.0,109.0,105.0,13.3,1505.3,324.0,-0.7,1.8,2470.216,13.33,0.041,289.7
2020-01-01T05:46:03,42.805,6.029,-0.036,0.004,-0.056,107.0,111.0,103.0,13.3,1505.3,327.3,-0.7,1.8,2470.246,13.33,0.036,276.3
2020-01-01T05:49:03,42.805,6.029,0.012,0.026,0.01,107.0,109.0,105.0,13.4,1505.3,326.4,-0.7,1.8,2470.283,13.33,0.028,24.8
2020-01-01T05:55:02,42.805,6.029,-0.032,-0.028,-0.029,108.0,109.0,104.0,13.4,1505.3,323.5,-0.8,1.8,2470.297,13.31,0.042,228.8
2020-01-01T05:58:02,42.805,6.029,-0.038,-0.004,-0.021,108.0,109.0,104.0,13.4,1505.3,326.7,-0.7,1.8,2470.294,13.32,0.038,264.0
2020-01-01T06:04:02,42.805,6.029,-0.024,0.04,0.009,108.0,113.0,107.0,13.4,1505.2,328.0,-0.8,1.8,2470.274,13.3,0.046,329.0
2020-01-01T06:07:02,42.805,6.029,-0.019,0.023,-0.049,108.0,109.0,103.0,13.4,1505.3,322.9,-0.8,1.8,2470.286,13.31,0.029,320.4
2020-01-01T06:10:03,42.805,6.029,-0.027,0.015,-0.028,108.0,109.0,103.0,13.3,1505.3,323.3,-0.7,1.8,2470.275,13.32,0.03,299.1
2020-01-01T06:13:03,42.805,6.029,-0.026,0.014,-0.011,108.0,109.0,104.0,13.3,1505.3,326.7,-0.7,1.8,2470.27,13.32,0.029,298.3
2020-01-01T06:16:03,42.805,6.029,-0.049,0.02,-0.073,107.0,111.0,104.0,13.3,1505.3,323.6,-0.8,1.8,2470.286,13.32,0.052,292.2
2020-01-01T06:19:03,42.805,6.029,-0.022,0.014,-0.022,107.0,111.0,103.0,13.4,1505.3,325.1,-0.7,1.8,2470.297,13.33,0.026,302.5
2020-01-01T06:22:02,42.805,6.029,-0.023,0.014,-0.033,107.0,110.0,103.0,13.4,1505.3,325.8,-0.7,1.8,2470.271,13.33,0.026,301.3
2020-01-01T06:25:03,42.805,6.029,-0.035,0.01,-0.041,108.0,112.0,102.0,13.4,1505.3,325.5,-0.7,1.8,2470.226,13.33,0.036,285.9
2020-01-01T06:28:03,42.805,6.029,-0.062,0.027,-0.016,107.0,110.0,104.0,13.3,1505.3,325.4,-0.7,1.8,2470.263,13.33,0.067,293.5
2020-01-01T06:31:03,42.805,6.029,-0.026,0.032,-0.039,108.0,112.0,104.0,13.4,1505.3,325.4,-0.7,1.9,2470.244,13.33,0.041,320.9
2020-01-01T06:34:03,42.805,6.029,-0.045,0.037,-0.033,109.0,111.0,103.0,13.4,1505.3,327.7,-0.7,1.8,2470.267,13.33,0.058,309.4
2020-01-01T06:37:02,42.805,6.029,-0.046,0.019,-0.009,110.0,112.0,104.0,13.4,1505.3,324.1,-0.7,1.8,2470.278,13.33,0.049,292.4
2020-01-01T06:40:03,42.805,6.029,-0.036,0.036,0.012,107.0,111.0,104.0,13.4,1505.3,324.7,-0.8,1.9,2470.254,13.33,0.05,315.0
2020-01-01T06:43:03,42.805,6.029,-0.051,0.011,-0.037,107.0,111.0,105.0,13.4,1505.3,324.7,-0.7,1.8,2470.256,13.33,0.052,282.2
2020-01-01T06:46:02,42.805,6.029,-0.04,0.017,-0.014,106.0,111.0,102.0,13.4,1505.3,326.8,-0.7,1.8,2470.232,13.33,0.043,293.0
2020-01-01T06:49:03,42.805,6.029,-0.029,0.011,-0.022,108.0,111.0,103.0,13.3,1505.3,326.2,-0.7,1.8,2470.252,13.33,0.031,290.8
2020-01-01T06:52:02,42.805,6.029,-0.005,0.019,-0.009,107.0,109.0,102.0,13.4,1505.3,323.4,-0.7,1.8,2470.281,13.33,0.019,345.3
2020-01-01T06:55:03,42.805,6.029,-0.032,0.002,-0.006,108.0,111.0,105.0,13.3,1505.3,325.1,-0.7,1.8,2470.286,13.33,0.032,273.6
2020-01-01T06:58:03,42.805,6.029,-0.051,0.008,-0.05,107.0,110.0,102.0,13.3,1505.3,323.5,-0.7,1.9,2470.275,13.33,0.051,278.9
2020-01-01T07:04:02,42.805,6.029,-0.05,0.023,-0.046,106.0,111.0,105.0,13.4,1505.3,326.0,-0.8,1.9,2470.304,13.31,0.055,294.7
2020-01-01T07:07:02,42.805,6.029,-0.042,0.044,-0.01,107.0,111.0,103.0,13.4,1505.3,327.0,-0.7,1.8,2470.251,13.32,0.06,316.3
2020-01-01T07:10:03,42.805,6.029,-0.027,0.024,-0.007,108.0,112.0,103.0,13.4,1505.3,327.1,-0.7,1.8,2470.296,13.32,0.036,311.6
2020-01-01T07:13:03,42.805,6.029,-0.023,0.002,-0.04,109.0,109.0,105.0,13.3,1505.3,327.0,-0.7,1.8,2470.264,13.32,0.023,275.0
2020-01-01T07:16:03,42.805,6.029,-0.022,0.022,-0.027,109.0,111.0,104.0,13.4,1505.3,328.0,-0.7,1.8,2470.254,13.33,0.031,315.0
2020-01-01T07:19:03,42.805,6.029,-0.006,0.031,0.001,107.0,110.0,103.0,13.4,1505.3,323.6,-0.7,1.8,2470.292,13.33,0.031,349.0
2020-01-01T07:22:02,42.805,6.029,-0.019,0.036,-0.028,108.0,109.0,105.0,13.3,1505.3,325.6,-0.7,1.9,2470.277,13.33,0.04,332.2
2020-01-01T07:25:03,42.805,6.029,-0.03,0.041,-0.005,106.0,108.0,102.0,13.3,1505.3,326.7,-0.7,1.8,2470.314,13.33,0.05,323.8
2020-01-01T07:28:03,42.805,6.029,-0.013,0.0,0.012,109.0,109.0,103.0,13.4,1505.3,322.8,-0.7,1.9,2470.254,13.33,0.013,270.0
2020-01-01T07:31:03,42.805,6.029,-0.017,-0.007,-0.031,108.0,110.0,104.0,13.4,1505.3,325.2,-0.7,1.9,2470.309,13.33,0.018,247.6
2020-01-01T07:34:03,42.805,6.029,-0.047,0.039,-0.011,108.0,110.0,104.0,13.3,1505.3,323.9,-0.7,1.8,2470.32,13.33,0.061,309.7
2020-01-01T07:37:02,42.805,6.029,-0.031,0.016,-0.029,106.0,110.0,102.0,13.4,1505.3,326.9,-0.7,1.8,2470.309,13.33,0.034,297.3
2020-01-01T07:40:03,42.805,6.029,-0.028,0.005,-0.001,107.0,109.0,103.0,13.3,1505.3,326.8,-0.7,1.8,2470.302,13.33,0.028,280.1
2020-01-01T07:43:03,42.805,6.029,-0.041,0.031,-0.024,107.0,109.0,103.0,13.4,1505.3,325.1,-0.7,1.8,2470.282,13.33,0.051,307.1
2020-01-01T07:46:03,42.805,6.029,-0.034,0.001,-0.022,107.0,110.0,103.0,13.3,1505.3,326.1,-0.7,1.8,2470.292,13.33,0.034,271.7
2020-01-01T07:49:03,42.805,6.029,-0.018,0.011,-0.032,108.0,109.0,104.0,13.4,1505.3,326.9,-0.7,1.8,2470.295,13.33,0.021,301.4
2020-01-01T07:52:02,42.805,6.029,-0.017,0.031,-0.048,108.0,110.0,103.0,13.4,1505.3,326.5,-0.7,1.8,2470.283,13.33,0.035,331.3
2020-01-01T07:55:03,42.805,6.029,-0.025,0.006,0.001,108.0,110.0,104.0,13.4,1505.3,327.3,-0.7,1.8,2470.266,13.33,0.025,283.5
2020-01-01T07:58:03,42.805,6.029,-0.035,0.009,-0.013,108.0,109.0,105.0,13.4,1505.3,326.7,-0.7,1.8,2470.309,13.33,0.036,284.4
2020-01-01T08:04:02,42.805,6.029,-0.022,0.022,0.012,107.0,110.0,105.0,13.4,1505.3,325.6,-0.8,1.8,2470.358,13.31,0.031,315.0
2020-01-01T08:07:02,42.805,6.029,-0.005,0.022,-0.005,109.0,109.0,104.0,13.4,1505.3,322.7,-0.7,1.8,2470.375,13.32,0.022,347.2
2020-01-01T08:10:03,42.805,6.029,-0.049,0.015,-0.012,107.0,109.0,103.0,13.4,1505.3,326.0,-0.7,1.9,2470.318,13.32,0.051,287.0
2020-01-01T08:13:03,42.805,6.029,-0.028,0.028,-0.002,108.0,109.0,105.0,13.3,1505.3,325.2,-0.7,1.8,2470.342,13.33,0.039,315.0
2020-01-01T08:16:03,42.805,6.029,-0.053,0.027,-0.02,108.0,109.0,103.0,13.3,1505.3,327.6,-0.7,1.8,2470.35,13.33,0.059,297.0
2020-01-01T08:19:03,42.805,6.029,-0.033,0.015,-0.021,107.0,110.0,104.0,13.3,1505.3,328.7,-0.7,1.9,2470.33,13.33,0.036,294.4
2020-01-01T08:22:02,42.805,6.029,-0.033,0.017,-0.029,107.0,109.0,103.0,13.4,1505.3,323.1,-0.7,1.8,2470.345,13.33,0.037,297.3
2020-01-01T08:25:03,42.805,6.029,-0.02,0.029,0.008,108.0,111.0,103.0,13.4,1505.3,325.3,-0.7,1.8,2470.386,13.33,0.035,325.4
2020-01-01T08:28:02,42.805,6.029,-0.022,0.027,-0.055,109.0,111.0,104.0,13.4,1505.3,324.2,-0.7,1.8,2470.37,13.33,0.034,320.8
2020-01-01T08:31:03,42.805,6.029,-0.009,0.019,-0.025,109.0,110.0,102.0,13.3,1505.3,328.4,-0.7,1.8,2470.333,13.33,0.021,334.7
2020-01-01T08:34:03,42.805,6.029,-0.025,0.016,0.002,108.0,110.0,103.0,13.4,1505.3,323.8,-0.7,1.8,2470.388,13.33,0.029,302.6
2020-01-01T08:37:02,42.805,6.029,-0.044,0.017,-0.012,107.0,109.0,106.0,13.3,1505.3,324.9,-0.7,1.8,2470.359,13.33,0.047,291.1
2020-01-01T08:40:03,42.805,6.029,-0.029,0.01,-0.044,108.0,109.0,104.0,13.4,1505.3,326.3,-0.7,1.8,2470.324,13.33,0.03,289.0
2020-01-01T08:43:03,42.805,6.029,-0.019,0.006,-0.014,107.0,111.0,104.0,13.4,1505.3,325.8,-0.7,1.8,2470.339,13.33,0.019,287.5
2020-01-01T08:46:03,42.805,6.029,-0.036,0.012,-0.039,109.0,110.0,103.0,13.3,1505.3,324.4,-0.7,1.9,2470.332,13.33,0.037,288.4
2020-01-01T08:49:03,42.805,6.029,-0.02,0.03,-0.011,107.0,111.0,104.0,13.4,1505.3,326.5,-0.7,1.8,2470.394,13.33,0.036,326.3
2020-01-01T08:52:02,42.805,6.029,-0.025,-0.003,0.003,108.0,111.0,104.0,13.3,1505.3,327.0,-0.7,1.9,2470.331,13.33,0.025,263.2
2020-01-01T08:55:03,42.805,6.029,-0.016,0.01,0.013,107.0,110.0,103.0,13.4,1505.3,326.4,-0.7,1.8,2470.367,13.33,0.018,302.0
2020-01-01T08:58:03,42.805,6.029,-0.015,0.026,-0.015,108.0,110.0,105.0,13.3,1505.3,325.2,-0.7,1.8,2470.363,13.33,0.03,330.0
2020-01-01T09:04:02,42.805,6.029,-0.019,0.03,-0.032,108.0,109.0,105.0,13.3,1505.3,325.5,-0.7,1.8,2470.411,13.31,0.035,327.7
2020-01-01T09:07:03,42.805,6.029,-0.012,0.01,-0.03,109.0,112.0,103.0,13.3,1505.3,327.0,-0.7,1.8,2470.397,13.32,0.015,309.8
2020-01-01T09:10:03,42.805,6.029,-0.02,0.004,-0.028,108.0,110.0,103.0,13.4,1505.3,324.4,-0.7,1.8,2470.37,13.33,0.02,281.3
2020-01-01T09:13:03,42.805,6.029,-0.032,0.006,-0.056,107.0,112.0,104.0,13.3,1505.3,327.6,-0.7,1.8,2470.416,13.33,0.032,280.6
2020-01-01T09:16:03,42.805,6.029,-0.024,0.017,-0.015,107.0,109.0,104.0,13.4,1505.3,325.5,-0.7,1.8,2470.371,13.33,0.029,305.3
2020-01-01T09:19:03,42.805,6.029,-0.026,0.019,-0.058,107.0,110.0,104.0,13.3,1505.3,327.5,-0.7,1.8,2470.375,13.33,0.032,306.2
2020-01-01T09:22:02,42.805,6.029,-0.031,0.009,-0.038,107.0,112.0,104.0,13.4,1505.3,323.3,-0.7,1.8,2470.402,13.33,0.032,286.2
2020-01-01T09:25:03,42.805,6.029,-0.034,0.014,-0.031,109.0,113.0,105.0,13.4,1505.3,326.3,-0.7,1.8,2470.411,13.33,0.036,292.4
2020-01-01T09:28:03,42.805,6.029,-0.022,0.016,-0.011,109.0,108.0,103.0,13.3,1505.3,325.5,-0.7,1.8,2470.427,13.33,0.027,306.0
2020-01-01T09:31:03,42.805,6.029,-0.031,0.016,-0.027,108.0,109.0,103.0,13.4,1505.3,328.1,-0.7,1.8,2470.412,13.33,0.034,297.3
2020-01-01T09:34:03,42.805,6.029,-0.048,-0.004,-0.04,106.0,111.0,104.0,13.4,1505.3,326.4,-0.7,1.8,2470.403,13.33,0.048,265.2
2020-01-01T09:37:02,42.805,6.029,-0.055,0.014,-0.041,107.0,111.0,104.0,13.4,1505.3,328.4,-0.7,1.9,2470.418,13.33,0.056,284.3
2020-01-01T09:40:03,42.805,6.029,-0.007,-0.001,-0.045,108.0,112.0,104.0,13.4,1505.3,326.2,-0.7,1.8,2470.386,13.33,0.007,261.9
2020-01-01T09:43:03,42.805,6.029,-0.013,0.016,-0.011,108.0,110.0,103.0,13.4,1505.3,328.0,-0.7,1.8,2470.426,13.33,0.02,320.9
2020-01-01T09:46:03,42.805,6.029,-0.013,0.022,0.0,106.0,111.0,103.0,13.4,1505.3,323.2,-0.7,1.8,2470.413,13.33,0.025,329.4
2020-01-01T09:49:03,42.805,6.029,-0.006,0.02,0.006,106.0,110.0,104.0,13.4,1505.3,326.4,-0.7,1.9,2470.431,13.33,0.02,343.3
2020-01-01T09:52:03,42.805,6.029,-0.034,0.022,-0.022,108.0,109.0,102.0,13.4,1505.3,326.9,-0.8,1.8,2470.354,13.33,0.04,302.9
2020-01-01T09:55:03,42.805,6.029,-0.023,0.005,-0.04,109.0,107.0,103.0,13.4,1505.3,323.6,-0.6,1.8,2470.381,13.33,0.023,282.3
2020-01-01T09:58:03,42.805,6.029,-0.032,-0.001,-0.029,108.0,111.0,104.0,13.4,1505.3,326.4,-0.7,1.8,2470.382,13.33,0.032,268.2